Melbourne Airport, Australia

7:59 AM AEST on July 25, 2017 (GMT +1000)
Melbourne International

Weather History for YMML - February, 2014

Change the Weather History Date:

Friday, February 7, 2014

  Actual Average Record
Temperature  
Mean Temperature 82 °F -  
Max Temperature 100 °F 76 °F 114 °F (2009)
Min Temperature 62 °F 55 °F 46 °F (2011)
Cooling Degree Days 17    
Growing Degree Days 32 (Base 50)    
Moisture  
Dew Point 50 °F    
Average Humidity 37    
Maximum Humidity 88    
Minimum Humidity 7    
Precipitation  
Precipitation 0.00 in 0.05 in - ()
Sea Level Pressure  
Sea Level Pressure 29.85 in    
Wind  
Wind Speed 17 mph ()    
Max Wind Speed 30 mph    
Max Gust Speed 40 mph    
Visibility 8.8 miles    
Events      
Averages and records for this station are not official NWS values.
T = Trace of Precipitation, MM = Missing Value Source: Averaged Metar Reports

Daily Weather History Graph

Daily Weather History Graph

Search for Another Location

Airport or City:

Trip Planner

Search our weather history database for the weather conditions in past years. The results will help you decide how hot, cold, wet, or windy it might be!

Date:

Astronomy

Feb. 07, 2014 Rise Set
Actual Time 6:41 AM AEDT 8:27 PM AEDT
Civil Twilight 6:12 AM AEDT 8:56 PM AEDT
Nautical Twilight 5:38 AM AEDT 9:30 PM AEDT
Astronomical Twilight 5:01 AM AEDT 10:06 PM AEDT
Moon 2:26 PM AEDT (2/7) 12:15 AM AEDT (2/7)
Length of Visible Light 14h 43m
Length of Day
13h 46m
First Quarter, 52% of the Moon is Illuminated
Feb 7
First Quarter
Feb 15
Full
Feb 23
Last Quarter
Mar 1
New
Mar 9
First Quarter

Hourly Weather History & Observations

Time (AEDT) Temp. Heat Index Dew Point Humidity Pressure Visibility Wind Dir Wind Speed Gust Speed Precip Events Conditions
12:00 AM 81 °F - 48 °F 21% 29.83 in 25 mi North 17.3 mph - -   Partly Cloudy
12:00 AM 80.6 °F - 48.2 °F 32% 29.83 in - North 17.3 mph - N/A   Clear
12:30 AM 78.8 °F - 48.2 °F 34% 29.83 in - North 15.0 mph - N/A   Clear
1:00 AM 78 °F - 48 °F 25% 29.82 in - North 13.8 mph - -  
1:00 AM 78.8 °F - 48.2 °F 34% 29.83 in - North 13.8 mph - N/A   Clear
1:30 AM 77.0 °F - 48.2 °F 36% 29.80 in - North 15.0 mph - N/A   Clear
2:00 AM 77 °F - 49 °F 26% 29.82 in - North 15.0 mph - -  
2:00 AM 77.0 °F - 48.2 °F 36% 29.83 in - North 15.0 mph - N/A   Clear
2:30 AM 77.0 °F - 48.2 °F 36% 29.80 in - North 15.0 mph - N/A   Clear
3:00 AM 77 °F - 48 °F 25% 29.81 in 22 mi North 15.0 mph - -   Partly Cloudy
3:00 AM 77.0 °F - 48.2 °F 36% 29.80 in - North 15.0 mph - N/A   Clear
3:30 AM 77.0 °F - 48.2 °F 36% 29.80 in - North 16.1 mph - N/A   Clear
4:00 AM 76 °F - 48 °F 26% 29.80 in - North 13.8 mph - -  
4:00 AM 77.0 °F - 48.2 °F 36% 29.80 in - North 13.8 mph - N/A   Clear
4:30 AM 75.2 °F - 48.2 °F 38% 29.80 in - North 13.8 mph - N/A   Clear
5:00 AM 76 °F - 47 °F 25% 29.80 in - North 15.0 mph - -  
5:00 AM 75.2 °F - 46.4 °F 36% 29.80 in - North 15.0 mph - N/A   Clear
5:30 AM 77.0 °F - 46.4 °F 34% 29.80 in - North 16.1 mph - N/A   Clear
6:00 AM 76 °F - 47 °F 24% 29.80 in 22 mi North 18.4 mph - -   Partly Cloudy
6:00 AM 77.0 °F - 46.4 °F 34% 29.80 in - North 18.4 mph - N/A   Clear
6:30 AM 77.0 °F - 46.4 °F 34% 29.80 in - North 20.7 mph - N/A   Clear
7:00 AM 76 °F - 47 °F 24% 29.82 in - North 19.6 mph - -  
7:00 AM 77.0 °F - 46.4 °F 34% 29.83 in - North 19.6 mph - N/A   Clear
7:30 AM 78.8 °F - 46.4 °F 32% 29.83 in 6.2 mi North 19.6 mph - N/A   Unknown
8:00 AM 82 °F - 46 °F 18% 29.82 in - North 28.8 mph - -  
8:00 AM 82.4 °F - 46.4 °F 28% 29.83 in 6.2 mi North 28.8 mph - N/A   Unknown
8:30 AM 80.6 °F - 44.6 °F 28% 29.83 in - North 28.8 mph - N/A   Clear
9:00 AM 80 °F - 45 °F 19% 29.84 in 19 mi North 28.8 mph - -   Partly Cloudy
9:00 AM 80.6 °F - 44.6 °F 28% 29.83 in - North 28.8 mph - N/A   Clear
9:30 AM 82.4 °F - 44.6 °F 26% 29.83 in - North 27.6 mph - N/A   Clear
10:00 AM 85 °F - 42 °F 13% 29.84 in - North 28.8 mph - -  
10:00 AM 86.0 °F - 42.8 °F 22% 29.83 in - North 28.8 mph - N/A   Clear
10:30 AM 87.8 °F - 42.8 °F 21% 29.83 in - North 29.9 mph - N/A   Clear
11:00 AM 89 °F - 42 °F 11% 29.84 in - North 26.5 mph - -  
11:00 AM 89.6 °F - 41.0 °F 18% 29.83 in - North 26.5 mph - N/A   Clear
11:30 AM 91.4 °F - 42.8 °F 18% 29.83 in - North 25.3 mph - N/A   Clear
12:00 PM 93 °F - 42 °F 10% 29.83 in 19 mi North 24.2 mph - -   Partly Cloudy
12:00 PM 93.2 °F - 42.8 °F 17% 29.83 in - North 24.2 mph - N/A   Clear
12:17 PM 93.2 °F - 41.0 °F 16% 29.83 in - North 25.3 mph 36.8 mph N/A   Clear
12:30 PM 95.0 °F - 42.8 °F 16% 29.83 in - North 26.5 mph - N/A   Clear
12:45 PM 95.0 °F - 42.8 °F 16% 29.80 in - North 24.2 mph 35.7 mph N/A   Clear
1:00 PM 96 °F - 42 °F 9% 29.81 in - North 25.3 mph - -  
1:00 PM 95.0 °F - 42.8 °F 16% 29.80 in - North 25.3 mph - N/A   Clear
1:04 PM 96.8 °F - 42.8 °F 16% 29.80 in - North 24.2 mph 40.3 mph N/A   Clear
1:30 PM 96.8 °F - 42.8 °F 16% 29.80 in - North 23.0 mph - N/A   Clear
1:40 PM 98.6 °F - 42.8 °F 15% 29.80 in - North 20.7 mph 32.2 mph N/A   Clear
2:00 PM 100 °F - 43 °F 7% 29.80 in - North 18.4 mph - -  
2:00 PM 100.4 °F - 42.8 °F 14% 29.80 in - North 18.4 mph 31.1 mph N/A   Clear
2:30 PM 93.2 °F 90.8 °F 53.6 °F 26% 29.83 in - NW 8.1 mph - N/A   Clear
2:40 PM 87.8 °F 86.5 °F 57.2 °F 35% 29.80 in - SSE 17.3 mph - N/A   Clear
3:00 PM 87 °F - 57 °F 25% 29.81 in 12 mi SSE 19.6 mph - -   Haze
3:00 PM 86.0 °F 84.9 °F 57.2 °F 37% 29.80 in - SSE 19.6 mph - N/A   Clear
3:30 PM 84.2 °F 83.0 °F 55.4 °F 37% 29.83 in - South 19.6 mph - N/A   Clear
4:00 PM 81 °F - 57 °F 34% 29.83 in - South 19.6 mph - -  
4:00 PM 80.6 °F 80.8 °F 57.2 °F 45% 29.83 in - South 19.6 mph - N/A   Clear
4:30 PM 80.6 °F 81.1 °F 59.0 °F 48% 29.83 in - South 15.0 mph - N/A   Clear
5:00 PM 80 °F - 59 °F 39% 29.85 in - South 12.7 mph - -  
5:00 PM 80.6 °F 81.1 °F 59.0 °F 48% 29.86 in - South 12.7 mph - N/A   Clear
5:30 PM 78.8 °F - 59.0 °F 51% 29.86 in - South 16.1 mph - N/A   Clear
6:00 PM 80 °F - 56 °F 33% 29.86 in 12 mi South 15.0 mph - -   Haze
6:00 PM 78.8 °F - 55.4 °F 44% 29.86 in - South 15.0 mph - N/A   Clear
6:30 PM 77.0 °F - 57.2 °F 50% 29.86 in - South 15.0 mph - N/A   Clear
7:00 PM 74 °F - 60 °F 52% 29.88 in - South 15.0 mph - -  
7:00 PM 73.4 °F - 59.0 °F 61% 29.89 in - South 15.0 mph - N/A   Clear
7:30 PM 71.6 °F - 60.8 °F 69% 29.92 in - South 13.8 mph - N/A   Clear
8:00 PM 69 °F - 60 °F 66% 29.94 in - South 13.8 mph - -  
8:00 PM 69.8 °F - 60.8 °F 73% 29.95 in - South 13.8 mph - N/A   Clear
8:30 PM 66.2 °F - 60.8 °F 83% 29.95 in 6.2 mi South 13.8 mph - N/A   Scattered Clouds
9:00 PM 66 °F - 60 °F 76% 29.97 in 7 mi South 10.4 mph - -   Haze
9:00 PM 66.2 °F - 60.8 °F 83% 29.98 in 6.2 mi South 10.4 mph - N/A   Scattered Clouds
9:30 PM 66.2 °F - 60.8 °F 83% 29.95 in 6.2 mi South 9.2 mph - N/A   Mostly Cloudy
10:00 PM 66 °F - 61 °F 78% 29.96 in - South 8.1 mph - -  
10:00 PM 66.2 °F - 60.8 °F 83% 29.98 in 6.2 mi South 8.1 mph - N/A   Mostly Cloudy
10:30 PM 64.4 °F - 60.8 °F 88% 29.95 in 5.6 mi SSW 6.9 mph - N/A   Mostly Cloudy
11:00 PM 64 °F - 60 °F 84% 29.95 in - SW 5.8 mph - -  
11:00 PM 64.4 °F - 60.8 °F 88% 29.95 in 5.6 mi SW 5.8 mph - N/A   Scattered Clouds
11:30 PM 62.6 °F - 59.0 °F 88% 29.95 in 5.6 mi WSW 4.6 mph - N/A   Scattered Clouds